Location: Tr�vern
(48.0333°N, 4.6000°W)
Time: 18:04:29
(UTC+00:00)

Cosmos 1602 - Pass Details

Date: 14 July 2020
Orbit: 515 x 533 km, 82.5° (Epoch: 12 August)

Event Time Altitude Azimuth Distance (km) Brightness Sun altitude
Exits shadow 01:52:26 39° 228° (SW) 785 4.1 -17.6°
Maximum altitude 01:53:31 55° 282° (WNW) 630 4.0 -17.5°
Drops below altitude 10° 01:57:19 10° 1° (N) 1,764 7.5 -17.3°
Sets 01:59:30 0° 6° (N) 2,660 8.8 -17.1°
